FW7517 Weather Reports


time (UTC)temp
F
wind
direction
speed
knots
gust
knots
rain 1hr
in
rain 24hr
in
rain mn
in
humidity
%
barometer
mb
20260502210613 51 172 3.5 7.8 0.00 0.00 0.00 37 1014.1
20260502210108 51 283 2.6 7.8 0.00 0.00 0.00 39 1014.1
20260502205810 50 303 0.9 11.3 0.00 0.00 0.00 38 1014.1
20260502205023 49 337 8.7 11.3 0.00 0.00 0.00 39 1014.1
20260502204503 50 306 6.1 13.9 0.00 0.00 0.00 38 1014.1
20260502203957 50 290 2.6 13.9 0.00 0.00 0.00 37 1014.1
20260502203430 49 279 2.6 9.6 0.00 0.00 0.00 38 1014.1
20260502202920 50 356 5.2 9.6 0.00 0.00 0.00 38 1014.4
20260502202642 49 355 2.6 13.0 0.00 0.00 0.00 39 1014.1
20260502201908 49 348 7.0 13.0 0.00 0.00 0.00 38 1014.1
20260502201618 50 300 2.6 9.6 0.00 0.00 0.00 36 1014.4
20260502200900 49 340 4.3 11.3 0.00 0.00 0.00 40 1014.1
20260502200335 50 308 4.3 8.7 0.00 0.00 0.00 39 1014.4
20260502195817 49 238 4.3 14.8 0.00 0.00 0.00 38 1014.4
20260502195525 49 0 9.6 14.8 0.00 0.00 0.00 38 1014.4
20260502194744 49 352 2.6 13.0 0.00 0.00 0.00 41 1014.7
20260502194235 49 309 5.2 13.0 0.00 0.00 0.00 36 1014.4
20260502193728 48 349 7.8 9.6 0.00 0.00 0.00 37 1014.7
20260502193201 50 6 5.2 8.7 0.00 0.00 0.00 37 1014.4
20260502192655 49 355 6.1 8.7 0.00 0.00 0.00 36 1014.7
20260502192127 50 328 7.0 8.7 0.00 0.00 0.00 36 1014.4
20260502191629 50 16 3.5 9.6 0.00 0.00 0.00 35 1014.7
20260502191121 50 1 2.6 9.6 0.00 0.00 0.00 36 1014.7
20260502190558 50 340 2.6 8.7 0.00 0.00 0.00 37 1015.1
20260502190036 49 3 3.5 8.7 0.00 0.00 0.00 35 1014.7
20260502185527 50 32 4.3 11.3 0.00 0.00 0.00 37 1015.1
20260502185022 49 350 3.5 11.3 0.00 0.00 0.00 35 1015.1
20260502184501 49 353 7.8 11.3 0.00 0.00 0.00 35 1015.1
20260502183935 49 297 5.2 13.9 0.00 0.00 0.00 37 1015.1
20260502183428 48 284 8.7 13.9 0.00 0.00 0.00 35 1015.1
20260502182859 49 343 6.1 12.2 0.00 0.00 0.00 34 1014.7
20260502182354 49 298 2.6 11.3 0.00 0.00 0.00 37 1015.1
20260502181835 49 335 7.0 12.2 0.00 0.00 0.00 36 1015.4
20260502181327 48 338 4.3 12.2 0.00 0.00 0.00 36 1015.1
20260502180822 49 332 3.5 9.6 0.00 0.00 0.00 37 1015.1
20260502180524 48 16 1.7 8.7 0.00 0.00 0.00 39 1015.1
20260502170451 47 302 3.5 13.9 0.00 0.00 0.00 41 1015.4
20260502170411 47 310 6.1 13.9 0.00 0.00 0.00 43 1015.4
20260502163855 47 293 3.5 11.3 0.00 0.00 0.00 45 1015.8
20260502163327 46 321 2.6 11.3 0.00 0.00 0.00 48 1015.8
20260502162827 46 326 8.7 13.0 0.00 0.00 0.00 45 1015.8
20260502162328 46 305 7.0 13.0 0.00 0.00 0.00 47 1015.8
20260502161813 47 340 5.2 9.6 0.00 0.00 0.00 47 1015.8
20260502161307 46 318 2.6 12.2 0.00 0.00 0.00 45 1015.8
20260502160842 46 15 2.6 12.2 0.00 0.00 0.00 40 1015.8
20260502160234 46 350 6.1 13.0 0.00 0.00 0.00 42 1015.8
20260502152001 45 355 5.2 11.3 0.00 0.00 0.00 53 1015.8
20260502151454 45 343 0.9 11.3 0.00 0.00 0.00 56 1015.8
20260502151156 44 336 2.6 9.6 0.00 0.00 0.00 55 1016.1
20260502150428 43 311 0.9 8.7 0.00 0.00 0.00 55 1015.8
20260502130408 37 329 3.5 6.1 0.00 0.00 0.00 79 1017.2
20260502123800 35 328 0.9 7.0 0.00 0.00 0.00 82 1017.2
20260502123242 35 340 1.7 7.0 0.00 0.00 0.00 83 1016.9
20260502122955 35 293 1.7 6.1 0.00 0.00 0.00 83 1017.2
20260502122228 34 342 1.7 7.0 0.00 0.00 0.00 84 1017.2
20260502121705 34 342 3.5 6.1 0.00 0.00 0.00 84 1017.2
20260502121418 34 338 0.9 3.5 0.00 0.00 0.00 85 1017.2
20260502120628 33 343 1.7 5.2 0.00 0.00 0.00 86 1016.9
20260502120130 33 293 2.6 5.2 0.00 0.00 0.00 86 1016.9
20260502115622 33 4 2.6 5.2 0.00 0.00 0.00 87 1017.2
20260502115058 32 335 0.0 6.1 0.00 0.00 0.00 88 1017.2
20260502114746 32 305 0.9 5.2 0.00 0.00 0.00 88 1016.9
20260502114027 32 328 0.9 2.6 0.00 0.00 0.00 89 1016.9
20260502113523 32 312 0.9 5.2 0.00 0.00 0.00 89 1016.9
20260502113020 31 325 2.6 5.2 0.00 0.00 0.00 90 1016.9
20260502112507 31 318 0.0 2.6 0.00 0.00 0.00 91 1016.9
20260502111959 30 320 0.9 6.1 0.00 0.00 0.00 92 1016.9
20260502111715 29 314 2.6 6.1 0.00 0.00 0.00 93 1016.9
20260502110927 29 290 0.9 3.5 0.00 0.00 0.00 93 1016.9
20260502110428 28 335 0.9 1.7 0.00 0.00 0.00 93 1016.9
20260502105928 28 306 0.9 2.6 0.00 0.00 0.00 93 1016.9
20260502105413 28 322 0.9 2.6 0.00 0.00 0.00 94 1016.9
20260502104907 28 318 0.0 1.7 0.00 0.00 0.00 95 1016.9
20260502104403 28 324 1.7 1.7 0.00 0.00 0.00 95 1016.9
20260502103859 27 311 0.9 1.7 0.00 0.00 0.00 95 1016.5
20260502103555 28 299 0.0 1.7 0.00 0.00 0.00 95 1016.9
20260502102829 28 292 1.7 1.7 0.00 0.00 0.00 95 1016.9
20260502102539 28 300 0.0 2.6 0.00 0.00 0.00 95 1016.5
20260502101850 28 301 0.0 2.6 0.00 0.00 0.00 95 1016.9
20260502101009 28 308 1.7 2.6 0.00 0.00 0.00 95 1016.5
20260502100220 28 271 0.9 2.6 0.00 0.00 0.00 95 1016.9
20260502091018 28 311 0.0 0.0 0.00 0.00 0.00 95 1016.5
20260502090459 28 314 0.0 0.0 0.00 0.00 0.00 94 1016.9
20260502071453 26 311 0.0 0.9 0.00 0.00 0.00 99 1016.5
20260502071154 26 310 0.0 0.0 0.00 0.00 0.00 99 1016.5
20260502070428 26 311 0.0 0.0 0.00 0.00 0.00 99 1016.5
20260502065921 26 310 0.0 0.0 0.00 0.00 0.00 99 1016.5
20260502065418 26 310 0.0 0.0 0.00 0.00 0.00 99 1016.5
20260502064908 26 310 0.0 0.0 0.00 0.00 0.00 99 1016.1
20260502064400 26 311 0.0 0.0 0.00 0.00 0.00 99 1016.5
20260502063900 26 311 0.0 0.0 0.00 0.00 0.00 99 1016.5
20260502063336 26 311 0.0 0.0 0.00 0.00 0.00 99 1016.1
20260502063033 26 310 0.0 0.0 0.00 0.00 0.00 99 1016.5
20260502062259 26 311 0.0 0.0 0.00 0.00 0.00 99 1016.5
20260502062227 26 311 0.0 0.0 0.00 0.00 0.00 99 1016.9
20260502061235 26 311 0.0 0.0 0.00 0.00 0.00 99 1016.9
20260502060953 27 311 0.0 0.0 0.00 0.00 0.00 99 1016.5
20260502060159 27 311 0.0 0.0 0.00 0.00 0.00 99 1016.9
20260502055652 27 311 0.0 0.0 0.00 0.00 0.00 99 1016.5
20260502055127 27 311 0.0 0.0 0.00 0.00 0.00 99 1016.5
20260502054824 28 310 0.0 0.0 0.00 0.00 0.00 99 1016.5
20260502054050 28 310 0.0 0.0 0.00 0.00 0.00 99 1016.5
20260502053527 27 310 0.0 0.0 0.00 0.00 0.00 99 1016.9
20260502053013 27 310 0.0 0.0 0.00 0.00 0.00 99 1016.5
20260502052507 28 310 0.0 0.0 0.00 0.00 0.00 99 1016.5
20260502052002 28 310 0.0 0.0 0.00 0.00 0.00 99 1016.9
20260502051500 28 310 0.0 0.0 0.00 0.00 0.00 99 1016.5
20260502050935 28 310 0.0 0.0 0.00 0.00 0.00 99 1016.5
20260502050429 28 311 0.0 0.0 0.00 0.00 0.00 99 1016.5
20260502045900 28 310 0.0 0.0 0.00 0.00 0.00 99 1016.5
20260502045355 29 310 0.0 0.0 0.00 0.00 0.00 99 1016.5
20260502045056 29 310 0.0 0.0 0.00 0.00 0.00 99 1016.5
20260502044328 29 310 0.0 0.0 0.00 0.00 0.00 98 1016.5
20260502043821 30 310 0.0 0.0 0.00 0.00 0.00 98 1016.5
20260502043254 30 310 0.0 0.0 0.00 0.00 0.00 98 1016.5
20260502042727 30 310 0.0 0.0 0.00 0.00 0.00 97 1016.5
20260502042228 31 310 0.0 0.0 0.00 0.00 0.00 95 1016.5
20260502041720 31 310 0.0 0.0 0.00 0.00 0.00 94 1016.5
20260502041214 32 310 0.0 0.9 0.00 0.00 0.00 93 1016.9
20260502040708 32 309 0.0 0.9 0.00 0.00 0.00 93 1016.5
20260502040202 33 323 0.0 0.0 0.00 0.00 0.00 91 1016.5
20260502035654 33 323 0.0 0.0 0.00 0.00 0.00 91 1016.5
20260502035124 33 323 0.0 0.9 0.00 0.00 0.00 90 1016.5
20260502034841 33 323 0.0 0.9 0.00 0.00 0.00 90 1016.5
20260502034100 33 323 0.0 0.9 0.00 0.00 0.00 89 1016.9
20260502033543 33 323 0.0 0.9 0.00 0.00 0.00 90 1016.5
20260502033035 33 324 0.0 0.9 0.00 0.00 0.00 89 1016.5
20260502032528 33 324 0.9 0.9 0.00 0.00 0.00 89 1016.9
20260502032021 34 325 0.0 0.9 0.00 0.00 0.00 88 1016.5
20260502031453 34 325 0.0 0.9 0.00 0.00 0.00 88 1016.5
20260502030928 34 325 0.0 0.9 0.00 0.00 0.00 87 1016.5
20260502030408 34 325 0.0 0.9 0.00 0.00 0.00 87 1016.5
20260502030106 34 324 0.0 0.9 0.00 0.00 0.00 87 1016.5
20260502025347 34 325 0.0 0.9 0.00 0.00 0.00 86 1016.5
20260502024836 34 325 0.0 0.9 0.00 0.00 0.00 86 1016.9
20260502024325 34 324 0.0 0.0 0.00 0.00 0.00 86 1016.5
20260502023821 34 325 0.0 0.0 0.00 0.00 0.00 87 1016.9
20260502023300 34 325 0.0 0.0 0.00 0.00 0.00 86 1016.5
20260502022956 34 325 0.0 0.0 0.00 0.00 0.00 85 1016.5
20260502022227 34 325 0.0 0.0 0.00 0.00 0.00 84 1016.9
20260502021701 34 325 0.0 0.9 0.00 0.00 0.00 83 1016.5
20260502021151 35 325 0.0 0.9 0.00 0.00 0.00 83 1016.5
20260502020852 35 325 0.0 0.9 0.00 0.00 0.00 81 1016.5
20260502020129 35 325 0.9 0.9 0.00 0.00 0.00 81 1016.5
20260502015604 35 323 0.9 2.6 0.00 0.00 0.00 80 1016.5
20260502015054 35 334 0.9 2.6 0.00 0.00 0.00 81 1016.9
20260502014528 34 336 0.9 0.9 0.00 0.00 0.00 82 1016.5
20260502014029 33 336 0.0 0.0 0.00 0.00 0.00 85 1016.9
20260502013744 33 336 0.0 0.0 0.00 0.00 0.00 85 1016.5
20260502013013 34 336 0.0 0.0 0.00 0.00 0.00 82 1016.5
20260502012507 35 336 0.0 0.0 0.00 0.00 0.00 81 1016.5
20260502012001 35 336 0.0 0.0 0.00 0.00 0.00 80 1016.5
20260502011500 35 336 0.0 0.0 0.00 0.00 0.00 78 1016.5
20260502011157 36 336 0.0 0.0 0.00 0.00 0.00 78 1016.5
20260502010651 36 336 0.0 0.0 0.00 0.00 0.00 78 1016.1
20260502010124 36 336 0.0 0.0 0.00 0.00 0.00 78 1016.5
20260502005343 36 336 0.0 0.9 0.00 0.00 0.00 77 1016.1
20260502004835 37 338 0.0 1.7 0.00 0.00 0.00 74 1016.1
20260502004329 37 340 0.0 1.7 0.00 0.00 0.00 72 1015.8
20260502003759 37 346 1.7 2.6 0.00 0.00 0.00 71 1016.1
20260502003252 37 327 1.7 2.6 0.00 0.00 0.00 71 1016.1
20260502002727 37 359 0.0 1.7 0.00 0.00 0.00 72 1015.8
20260502002224 37 5 0.0 1.7 0.00 0.00 0.00 72 1015.8
20260502001723 37 341 0.0 0.9 0.00 0.00 0.00 75 1016.1
20260502001159 37 338 0.0 0.0 0.00 0.00 0.00 75 1016.1
20260502000635 37 339 0.0 0.9 0.00 0.00 0.00 73 1015.8
20260502000127 37 341 0.0 0.9 0.00 0.00 0.00 76 1015.8
20260501235621 37 334 0.0 0.9 0.00 0.00 0.00 75 1015.8
20260501235100 37 341 0.9 1.7 0.00 0.00 0.00 73 1015.8
20260501234533 37 342 0.0 1.7 0.00 0.00 0.00 74 1015.8
20260501234027 37 349 0.9 2.6 0.00 0.00 0.00 72 1015.8
20260501233502 37 347 0.9 3.5 0.00 0.00 0.00 73 1015.8
20260501232951 37 323 1.7 6.1 0.00 0.00 0.00 72 1015.8
20260501232435 37 20 2.6 7.0 0.00 0.00 0.00 70 1015.8
20260501232153 38 346 5.2 7.0 0.00 0.00 0.00 65 1015.8
20260501231404 39 342 1.7 5.2 0.00 0.00 0.00 64 1015.8
20260501231126 39 337 1.7 3.5 0.00 0.00 0.00 63 1015.8
20260501230357 39 348 1.7 3.5 0.00 0.00 0.00 63 1015.4
20260501225828 39 345 0.9 5.2 0.00 0.00 0.00 62 1015.4
20260501225322 39 339 0.9 5.2 0.00 0.00 0.00 63 1015.8
20260501224812 39 319 1.7 3.5 0.00 0.00 0.00 63 1015.1
20260501224309 39 337 1.7 5.2 0.00 0.00 0.00 65 1015.4
20260501223801 39 341 2.6 5.2 0.00 0.00 0.00 64 1015.4
20260501223259 40 327 0.9 3.5 0.00 0.00 0.00 65 1015.4
20260501222736 40 347 3.5 3.5 0.00 0.00 0.00 63 1015.4
20260501222227 40 347 1.7 3.5 0.00 0.00 0.00 65 1015.4
20260501221659 40 339 1.7 3.5 0.00 0.00 0.00 66 1015.4
20260501221154 40 22 1.7 5.2 0.00 0.00 0.00 62 1015.1
20260501221118 40 340 3.5 6.1 0.00 0.00 0.00 64 1015.4
20260501220355 40 340 0.9 5.2 0.00 0.00 0.00 65 1015.1
20260501215600 40 332 1.7 3.5 0.00 0.00 0.00 65 1015.1
20260501215053 40 338 0.9 3.5 0.00 0.00 0.00 66 1015.1
20260501214528 40 343 0.9 3.5 0.00 0.00 0.00 65 1014.7
20260501214225 40 329 0.9 3.5 0.00 0.00 0.00 65 1015.1
20260501213932 40 345 1.7 3.5 0.00 0.00 0.00 65 1015.1
20260501212927 41 330 0.9 7.0 0.00 0.00 0.00 63 1015.1
20260501212634 40 345 1.7 7.0 0.00 0.00 0.00 56 1015.1
20260501212129 40 339 2.6 6.1 0.00 0.00 0.00 57 1015.1
20260501211400 40 310 2.6 6.1 0.00 0.00 0.00 60 1014.7